Weather History for KFAY - June, 2014

Change the Weather History Date:

Monday, June 9, 2014

  Actual Average Record
Temperature  
Mean Temperature 82 °F 77 °F  
Max Temperature 92 °F 88 °F 101 °F (2008)
Min Temperature 71 °F 66 °F 50 °F (1997)
Degree Days  
Heating Degree Days 0 0  
Month to date heating degree days 0 0  
Since 1 June heating degree days 0 0  
Since 1 July heating degree days 2941 2732  
Cooling Degree Days 17 12  
Month to date cooling degree days 108 100  
Year to date cooling degree days 474 384  
Since 1 June cooling degree days 108 100  
Growing Degree Days 31 (Base 50)    
Moisture  
Dew Point 66 °F    
Average Humidity 65    
Maximum Humidity 85    
Minimum Humidity 44    
Precipitation  
Precipitation T in 0.14 in 4.06 in (2015)
Month to date precipitation T 1.36  
Year to date precipitation 18.45 17.03  
Sea Level Pressure  
Sea Level Pressure 29.88 in    
Wind  
Wind Speed 7 mph (South)    
Max Wind Speed 15 mph    
Max Gust Speed 18 mph    
Visibility 10 miles    
Events      
T = Trace of Precipitation, MM = Missing Value Source: NWS Daily Summary

Daily Weather History Graph

Daily Weather History Graph

Search for Another Location

Airport or City:

Trip Planner

Search our weather history database for the weather conditions in past years. The results will help you decide how hot, cold, wet, or windy it might be!

Date:

Astronomy

Jun. 09, 2014 Rise Set
Actual Time 6:01 AM EDT 8:28 PM EDT
Civil Twilight 5:31 AM EDT 8:58 PM EDT
Nautical Twilight 4:55 AM EDT 9:34 PM EDT
Astronomical Twilight 4:15 AM EDT 10:14 PM EDT
Moon 4:54 PM EDT (6/9) 3:18 AM EDT (6/9)
Length of Visible Light 15h 26m
Length of Day
14h 27m
Waxing Gibbous, 85% of the Moon is Illuminated
Jun 9
Waxing Gibbous
Jun 13
Full
Jun 19
Last Quarter
Jun 27
New
Jul 5
First Quarter

Hourly Weather History & Observations

Time (EDT) Temp. Heat Index Dew Point Humidity Pressure Visibility Wind Dir Wind Speed Gust Speed Precip Events Conditions
12:35 AM 72.0 °F - 63.0 °F 73% 29.92 in 10.0 mi SSE 5.8 mph - N/A   Overcast
12:53 AM 72.0 °F - 63.0 °F 73% 29.90 in 10.0 mi South 9.2 mph - N/A   Overcast
1:44 AM 72.0 °F - 64.0 °F 76% 29.91 in 10.0 mi SSE 6.9 mph - N/A   Mostly Cloudy
1:53 AM 72.0 °F - 64.0 °F 76% 29.89 in 10.0 mi SSE 6.9 mph - N/A   Overcast
2:53 AM 71.1 °F - 64.0 °F 78% 29.87 in 10.0 mi SE 4.6 mph - N/A   Mostly Cloudy
3:53 AM 71.1 °F - 64.0 °F 78% 29.86 in 10.0 mi SE 4.6 mph - N/A   Mostly Cloudy
4:53 AM 71.1 °F - 64.9 °F 81% 29.86 in 10.0 mi SE 3.5 mph - N/A   Mostly Cloudy
5:03 AM 71.1 °F - 64.9 °F 81% 29.88 in 10.0 mi SE 3.5 mph - N/A   Mostly Cloudy
5:11 AM 71.1 °F - 64.9 °F 81% 29.88 in 10.0 mi SE 3.5 mph - N/A   Overcast
5:53 AM 71.1 °F - 64.9 °F 81% 29.86 in 10.0 mi SSE 5.8 mph - N/A   Overcast
6:15 AM 71.1 °F - 64.9 °F 81% 29.88 in 10.0 mi SSW 4.6 mph - N/A   Overcast
6:45 AM 72.0 °F - 64.9 °F 78% 29.89 in 10.0 mi SE 4.6 mph - N/A   Overcast
6:53 AM 72.0 °F - 66.0 °F 81% 29.87 in 10.0 mi SE 4.6 mph - N/A   Overcast
7:53 AM 73.0 °F - 66.9 °F 81% 29.88 in 10.0 mi SSE 4.6 mph - N/A   Overcast
8:05 AM 73.9 °F - 66.9 °F 79% 29.90 in 10.0 mi South 6.9 mph - N/A   Overcast
8:53 AM 75.0 °F - 68.0 °F 79% 29.90 in 10.0 mi South 3.5 mph - N/A   Overcast
9:53 AM 78.1 °F - 70.0 °F 76% 29.90 in 10.0 mi South 3.5 mph - N/A   Overcast
11:53 AM 82.9 °F 87.0 °F 70.0 °F 65% 29.89 in 10.0 mi SW 6.9 mph - N/A   Overcast
12:53 PM 84.9 °F 89.4 °F 70.0 °F 61% 29.89 in 10.0 mi SW 9.2 mph - N/A   Mostly Cloudy
1:12 PM 86.0 °F 90.1 °F 69.1 °F 57% 29.91 in 10.0 mi WSW 9.2 mph - N/A   Mostly Cloudy
2:53 PM 89.1 °F 92.1 °F 66.9 °F 48% 29.86 in 10.0 mi SSW 11.5 mph - N/A   Clear
3:53 PM 91.0 °F 93.8 °F 66.0 °F 44% 29.85 in 10.0 mi SSW 10.4 mph - N/A   Partly Cloudy
4:53 PM 90.0 °F 91.7 °F 64.9 °F 43% 29.84 in 10.0 mi SSW 9.2 mph - N/A   Clear
5:53 PM 90.0 °F 91.7 °F 64.9 °F 43% 29.84 in 10.0 mi South 8.1 mph - N/A   Clear
6:53 PM 89.1 °F 91.0 °F 64.9 °F 45% 29.84 in 10.0 mi SW 10.4 mph - N/A   Clear
7:53 PM 87.1 °F 88.9 °F 64.9 °F 48% 29.84 in 10.0 mi South 5.8 mph - N/A   Clear
8:53 PM 81.0 °F 82.7 °F 64.9 °F 58% 29.84 in 10.0 mi SE 4.6 mph - N/A   Clear
9:53 PM 81.0 °F 85.2 °F 72.0 °F 74% 29.88 in 10.0 mi SSE 9.2 mph - N/A   Clear
10:53 PM 79.0 °F - 73.0 °F 82% 29.88 in 10.0 mi SSE 9.2 mph - N/A   Clear
11:53 PM 78.1 °F - 73.9 °F 87% 29.88 in 8.0 mi SSW 8.1 mph - N/A   Clear